• In Belgium
  • List of Countries
  • For 7 days
  • Water Temperature
  • Satellite Maps
  • Weather Map
  • Weather Widgets
  • user-avatar
    Login

    Hourly Weather Hobart

    Today, 21 August, Monday

    Time Temperature Precipitation Wind Pressure Humidity
    00:00 +4°C° 0 mm 2 mps 749 mmHg 93%
    01:00 +4°C° 0 mm 2 mps 748 mmHg 92%
    02:00 +3°C° 0 mm 2 mps 748 mmHg 93%
    03:00 +3°C° 0 mm 2 mps 748 mmHg 94%
    04:00 +2°C° 0 mm 2 mps 748 mmHg 95%
    05:00 +2°C° 0 mm 2 mps 748 mmHg 95%
    06:00 +2°C° 0 mm 2 mps 748 mmHg 96%
    07:00 +1°C° 0 mm 2 mps 747 mmHg 96%
    08:00 +4°C° 0 mm 2 mps 747 mmHg 85%
    09:00 +8°C° 0 mm 1 mps 747 mmHg 75%
    10:00 +10°C° 0 mm 1 mps 747 mmHg 64%
    11:00 +11°C° 0 mm 1 mps 747 mmHg 57%
    12:00 +13°C° 0 mm 1 mps 746 mmHg 51%
    13:00 +14°C° 0 mm 1 mps 746 mmHg 45%
    14:00 +13°C° 0 mm 1 mps 746 mmHg 49%
    15:00 +13°C° 0 mm 1 mps 746 mmHg 53%
    16:00 +12°C° 0 mm 1 mps 746 mmHg 57%
    17:00 +11°C° 0 mm 1 mps 746 mmHg 65%
    18:00 +9°C° 0 mm 1 mps 746 mmHg 72%
    19:00 +7°C° 0 mm 1 mps 747 mmHg 80%
    20:00 +7°C° 0 mm 1 mps 747 mmHg 84%
    21:00 +5°C° 0 mm 2 mps 747 mmHg 88%
    22:00 +4°C° 0 mm 2 mps 747 mmHg 92%
    23:00 +4°C° 0 mm 2 mps 747 mmHg 93%

    Tomorrow, 22 August, Tuesday

    Time Temperature Precipitation Wind Pressure Humidity
    00:00 +3°C° 0 mm 2 mps 747 mmHg 94%
    01:00 +3°C° 0 mm 2 mps 747 mmHg 95%
    02:00 +2°C° 0 mm 3 mps 746 mmHg 95%
    03:00 +1°C° 0 mm 3 mps 746 mmHg 95%
    04:00 +1°C° 0 mm 3 mps 746 mmHg 94%
    05:00 +1°C° 0 mm 3 mps 746 mmHg 94%
    06:00 +1°C° 0 mm 3 mps 746 mmHg 94%
    07:00 +1°C° 0 mm 3 mps 746 mmHg 93%
    08:00 +4°C° 0 mm 3 mps 746 mmHg 84%
    09:00 +8°C° 0 mm 3 mps 746 mmHg 75%
    10:00 +10°C° 0 mm 4 mps 746 mmHg 65%
    11:00 +11°C° 0 mm 4 mps 746 mmHg 62%
    12:00 +12°C° 0 mm 4 mps 745 mmHg 59%
    13:00 +13°C° 0 mm 4 mps 745 mmHg 56%
    14:00 +13°C° 0 mm 4 mps 745 mmHg 59%
    15:00 +12°C° 0 mm 4 mps 745 mmHg 62%
    16:00 +12°C° 0 mm 4 mps 745 mmHg 64%
    17:00 +11°C° 0 mm 4 mps 745 mmHg 72%
    18:00 +8°C° 0 mm 4 mps 745 mmHg 81%
    19:00 +8°C° 0 mm 3 mps 745 mmHg 89%
    20:00 +7°C° 0 mm 4 mps 745 mmHg 89%
    21:00 +7°C° 0 mm 4 mps 745 mmHg 89%
    22:00 +7°C° 0 mm 4 mps 745 mmHg 89%
    23:00 +7°C° 0 mm 4 mps 745 mmHg 89%

    Day after tomorrow, 23 August, Wednesday

    Time Temperature Precipitation Wind Pressure Humidity
    00:00 +7°C° 0 mm 4 mps 745 mmHg 89%
    01:00 +7°C° 0 mm 4 mps 745 mmHg 90%
    02:00 +7°C° 0 mm 4 mps 745 mmHg 90%
    03:00 +8°C° 0 mm 3 mps 745 mmHg 90%
    04:00 +9°C° 0 mm 3 mps 745 mmHg 91%
    05:00 +8°C° 0.1 mm 3 mps 745 mmHg 92%
    06:00 +8°C° 0.1 mm 2 mps 745 mmHg 94%
    07:00 +7°C° 0.1 mm 2 mps 745 mmHg 95%
    08:00 +8°C° 0.5 mm 2 mps 745 mmHg 90%
    09:00 +9°C° 0.5 mm 2 mps 745 mmHg 86%
    10:00 +10°C° 0.5 mm 2 mps 745 mmHg 81%
    11:00 +10°C° 2 mm 2 mps 744 mmHg 85%
    12:00 +9°C° 2 mm 3 mps 744 mmHg 90%
    13:00 +9°C° 2 mm 3 mps 744 mmHg 94%
    14:00 +8°C° 0.7 mm 3 mps 744 mmHg 95%
    15:00 +8°C° 0.7 mm 3 mps 743 mmHg 96%
    16:00 +8°C° 0.7 mm 3 mps 743 mmHg 96%
    17:00 +8°C° 1.2 mm 3 mps 744 mmHg 97%
    18:00 +7°C° 1.2 mm 3 mps 745 mmHg 97%
    19:00 +7°C° 1.2 mm 3 mps 745 mmHg 98%
    20:00 +5°C° 2 mm 4 mps 746 mmHg 98%
    21:00 +5°C° 2 mm 4 mps 747 mmHg 97%
    22:00 +5°C° 2 mm 4 mps 747 mmHg 97%
    23:00 +5°C° 0.4 mm 4 mps 748 mmHg 97%

    24 August, Thursday

    Time Temperature Precipitation Wind Pressure Humidity
    00:00 +4°C° 0.4 mm 4 mps 748 mmHg 96%
    01:00 +3°C° 0.4 mm 5 mps 749 mmHg 96%
    02:00 +3°C° 0 mm 4 mps 749 mmHg 97%
    03:00 +3°C° 0 mm 4 mps 749 mmHg 97%
    04:00 +1°C° 0 mm 4 mps 750 mmHg 98%
    05:00 +1°C° 0 mm 3 mps 750 mmHg 98%
    06:00 +1°C° 0 mm 3 mps 751 mmHg 98%
    07:00 +1°C° 0 mm 3 mps 751 mmHg 98%
    08:00 +3°C° 0 mm 3 mps 751 mmHg 91%
    09:00 +5°C° 0 mm 3 mps 752 mmHg 85%
    10:00 +7°C° 0 mm 2 mps 752 mmHg 78%
    11:00 +9°C° 0 mm 2 mps 752 mmHg 70%
    12:00 +10°C° 0 mm 2 mps 751 mmHg 61%
    13:00 +13°C° 0 mm 2 mps 751 mmHg 53%
    14:00 +12°C° 0 mm 2 mps 751 mmHg 56%
    15:00 +12°C° 0 mm 2 mps 750 mmHg 58%
    16:00 +12°C° 0 mm 2 mps 750 mmHg 60%
    17:00 +9°C° 0 mm 2 mps 751 mmHg 70%
    18:00 +8°C° 0 mm 2 mps 751 mmHg 79%
    19:00 +6°C° 0 mm 2 mps 751 mmHg 88%
    20:00 +5°C° 0 mm 3 mps 751 mmHg 88%
    21:00 +7°C° 0 mm 3 mps 751 mmHg 87%
    22:00 +7°C° 0 mm 3 mps 751 mmHg 87%
    23:00 +7°C° 0 mm 3 mps 751 mmHg 88%

    25 August, Friday

    Time Temperature Precipitation Wind Pressure Humidity
    00:00 +7°C° 0 mm 3 mps 751 mmHg 90%
    01:00 +7°C° 0 mm 3 mps 750 mmHg 91%
    02:00 +7°C° 0 mm 3 mps 750 mmHg 91%
    03:00 +7°C° 0 mm 3 mps 750 mmHg 91%
    04:00 +6°C° 0 mm 4 mps 750 mmHg 91%
    05:00 +6°C° 0 mm 4 mps 750 mmHg 90%
    06:00 +6°C° 0 mm 4 mps 750 mmHg 88%
    07:00 +6°C° 0 mm 4 mps 750 mmHg 87%
    08:00 +7°C° 0 mm 5 mps 750 mmHg 81%
    09:00 +9°C° 0 mm 5 mps 750 mmHg 75%
    10:00 +10°C° 0 mm 6 mps 750 mmHg 69%
    11:00 +10°C° 0.1 mm 6 mps 749 mmHg 71%
    12:00 +10°C° 0.1 mm 5 mps 749 mmHg 73%
    13:00 +10°C° 0.1 mm 5 mps 749 mmHg 75%
    14:00 +10°C° 0.2 mm 5 mps 749 mmHg 78%
    15:00 +10°C° 0.2 mm 4 mps 749 mmHg 81%
    16:00 +10°C° 0.2 mm 4 mps 749 mmHg 84%
    17:00 +10°C° 0.5 mm 4 mps 749 mmHg 86%
    18:00 +9°C° 0.5 mm 3 mps 750 mmHg 89%
    19:00 +8°C° 0.5 mm 3 mps 750 mmHg 91%
    20:00 +8°C° 0.3 mm 3 mps 751 mmHg 93%
    21:00 +8°C° 0.3 mm 3 mps 751 mmHg 94%
    22:00 +6°C° 0.3 mm 4 mps 752 mmHg 96%
    23:00 +5°C° 0 mm 4 mps 752 mmHg 96%

    26 August, Saturday

    Time Temperature Precipitation Wind Pressure Humidity
    00:00 +4°C° 0 mm 3 mps 752 mmHg 96%
    01:00 +3°C° 0 mm 3 mps 752 mmHg 97%
    02:00 +3°C° 0 mm 3 mps 753 mmHg 97%
    03:00 +3°C° 0 mm 3 mps 753 mmHg 97%
    04:00 +2°C° 0 mm 3 mps 753 mmHg 96%
    05:00 +3°C° 0 mm 2 mps 753 mmHg 96%
    06:00 +3°C° 0 mm 2 mps 754 mmHg 96%
    07:00 +3°C° 0 mm 2 mps 754 mmHg 96%
    08:00 +5°C° 0 mm 1 mps 754 mmHg 88%
    09:00 +7°C° 0 mm 1 mps 754 mmHg 80%
    10:00 +9°C° 0 mm 1 mps 754 mmHg 72%
    11:00 +9°C° 0 mm 1 mps 754 mmHg 66%
    12:00 +10°C° 0 mm 1 mps 754 mmHg 61%
    13:00 +9°C° 0 mm 2 mps 753 mmHg 56%
    14:00 +9°C° 0 mm 2 mps 753 mmHg 57%
    15:00 +9°C° 0 mm 2 mps 753 mmHg 59%
    16:00 +9°C° 0 mm 2 mps 753 mmHg 60%
    17:00 +7°C° 0 mm 2 mps 753 mmHg 68%
    18:00 +5°C° 0 mm 2 mps 754 mmHg 76%
    19:00 +3°C° 0 mm 2 mps 754 mmHg 84%
    20:00 +3°C° 0 mm 2 mps 754 mmHg 86%
    21:00 +2°C° 0 mm 2 mps 754 mmHg 88%
    22:00 +1°C° 0 mm 3 mps 754 mmHg 91%
    23:00 +1°C° 0 mm 3 mps 754 mmHg 91%
    Show more